Location: Newark
(25.4800°N, 85.7200°E)
Time: 19:10:31
(UTC+00:00)

Explorer 11/Cluster Stage 4 - Pass Details

Date: 21 August 2019
Orbit: 467 x 1259 km, 28.8° (Epoch: 14 October)

Event Time Altitude Azimuth Distance (km) Brightness Sun altitude
Rises 06:36:09 0° 265° (W) 4,197 10.4 76.2°
Reaches altitude 10° 06:39:08 10° 267° (W) 3,227 9.9 76.0°
Maximum altitude 06:47:23 74° 352° (N) 1,231 8.9 75.3°
Drops below altitude 10° 06:54:44 10° 77° (ENE) 2,889 9.5 74.4°
Sets 06:57:17 0° 79° (E) 3,739 9.9 74.1°
